This demonstration page uses our WeatherBlox Daily Observations layout. Learn more.

Left ArrowRight Arrow

38.89511, -77.03637

Hourly Observations for May 28, 2017

Temp ( °F °C ) Dew Point ( °F °C ) Humidity (%) Winds ( mph kmh ) Pressure ( in mb ) Visibility ( mi km ) Precip ( " mm )
12:52 am 00:52 Mostly Cloudy 65 18.3 62 16.7 90 90 NE 9 15 29.90 1013 10 16 0.00 0.00
1:52 am 01:52 Mostly Cloudy 64 17.8 62 16.7 93 93 ENE 5 7 29.89 1012 10 16 0.00 0.00
2:52 am 02:52 Mostly Cloudy 64 17.8 62 16.7 93 93 ENE 3 6 29.88 1012 10 16 0.00 0.00
3:52 am 03:52 Mostly Cloudy 63 17.2 62 16.7 97 97 ENE 3 6 29.88 1012 10 16 0.00 0.00
4:52 am 04:52 Mostly Cloudy 62 16.7 61 16.1 96 96 NNE 5 7 29.86 1011 10 16 0.00 0.00
5:52 am 05:52 Mostly Cloudy 62 16.7 61 16.1 96 96 N 3 6 29.88 1012 8 13 0.00 0.00
6:52 am 06:52 Mostly Cloudy 63 17.2 61 16.1 93 93 NE 8 13 29.87 1011 9 14 0.00 0.00
7:52 am 07:52 Partly Cloudy 65 18.3 61 16.1 87 87 NNE 7 11 29.88 1012 10 16 0.00 0.00
8:52 am 08:52 Mostly Cloudy 68 20 60 15.6 76 76 Calm 29.89 1012 10 16 0.00 0.00
9:52 am 09:52 Mostly Cloudy 71 21.7 60 15.6 68 68 E 7 11 29.88 1012 10 16 0.00 0.00
10:52 am 10:52 Cloudy 74 23.3 62 16.7 67 67 ESE 9 15 29.88 1012 10 16 0.00 0.00
11:52 am 11:52 Mostly Cloudy 73 22.8 61 16.1 66 66 ESE 10 17 29.88 1012 10 16 0.00 0.00
12:30 pm 12:30 Cloudy with Rain 71 21.7 63 17.2 76 76 E 8 13 29.88 1012 5 8 0.00 0.03
12:52 pm 12:52 Cloudy with Light Rain 71 21.7 64 17.8 79 79 ENE 7 11 29.87 1012 10 16 0.03 0.76
1:42 pm 13:42 Cloudy with Rain 68 20 64 17.8 87 87 S 3 6 29.88 1012 3 5 0.02 0.51
1:52 pm 13:52 Cloudy with Light Rain 68 20 64 17.8 87 87 SSE 3 6 29.89 1012 7 11 0.04 1.02
2:52 pm 14:52 Cloudy with Light Rain 67 19.4 65 18.3 93 93 ENE 9 15 29.86 1011 10 16 0.01 0.25
3:52 pm 15:52 Cloudy 68 20 65 18.3 90 90 ENE 10 17 29.84 1011 10 16 0.00 0.03
4:52 pm 16:52 Cloudy 68 20 65 18.3 90 90 NE 6 9 29.84 1011 10 16 0.00 0.00
5:52 pm 17:52 Cloudy 68 20 66 18.9 93 93 NE 7 11 29.83 1010 10 16 0.00 0.00
6:08 pm 18:08 Cloudy 68 20 66 18.9 93 93 NE 7 11 29.83 1010 10 16 0.00 0.00
6:14 pm 18:14 Cloudy 68 20 66 18.9 93 93 NE 6 9 29.83 1010 10 16 0.00 0.00
6:26 pm 18:26 Cloudy 68 20 66 18.9 93 93 NE 6 9 29.83 1010 10 16 0.00 0.00
6:52 pm 18:52 Cloudy 68 20 65 18.3 90 90 NE 7 11 29.84 1010 10 16 0.00 0.00
7:03 pm 19:03 Cloudy 68 20 65 18.3 90 90 NE 6 9 29.83 1010 10 16 0.00 0.00
7:52 pm 19:52 Cloudy with Light Rain 68 20 65 18.3 90 90 NE 6 9 29.84 1011 10 16 0.00 0.03
8:31 pm 20:31 Cloudy 67 19.4 65 18.3 93 93 ENE 7 11 29.83 1010 10 16 0.00 0.03
8:52 pm 20:52 Cloudy 67 19.4 65 18.3 93 93 ENE 6 9 29.83 1010 10 16 0.00 0.03
9:44 pm 21:44 Cloudy 67 19.4 65 18.3 93 93 E 7 11 29.83 1010 10 16 0.00 0.00
9:52 pm 21:52 Cloudy 67 19.4 65 18.3 93 93 E 7 11 29.84 1010 10 16 0.00 0.00
10:01 pm 22:01 Cloudy 67 19.4 65 18.3 93 93 E 5 7 29.83 1010 10 16 0.00 0.00
10:48 pm 22:48 Cloudy 66 19 64 18 94 94 NE 7 11 29.83 1010 10 16 0.00 0.00
10:52 pm 22:52 Cloudy 66 18.9 65 18.3 96 96 NE 8 13 29.83 1010 10 16 0.00 0.00
11:33 pm 23:33 Cloudy 66 18.9 65 18.3 96 96 NE 9 15 29.83 1010 10 16 0.00 0.00
11:52 pm 23:52 Cloudy 66 18.9 64 17.8 93 93 ENE 12 19 29.83 1010 10 16 0.00 0.00

Powered by AerisWeather